When you browse on this site, cookies collect data to enhance your experience and personalize the content and advertising you see.
Visit our Privacy Policy to learn more. By continuing to use the site, you agree to this use of cookies and data.
  • In Hungary
  • List of Countries
  • For 7 days
  • Water Temperature
  • Weather Map
  • News
  • Weather Widgets
  • user-avatar
    Login

    Hourly Weather Canidelo

    Today, 13 November, Wednesday

    Time Temperature Precipitation Wind Pressure Humidity
    00:00 +15°C° 0.8 mm 7 mps 754 mmHg 93%
    01:00 +15°C° 0.8 mm 7 mps 754 mmHg 93%
    02:00 +15°C° 0.8 mm 6 mps 754 mmHg 92%
    03:00 +15°C° 0.1 mm 5 mps 754 mmHg 93%
    04:00 +14°C° 0.1 mm 5 mps 754 mmHg 94%
    05:00 +14°C° 0.1 mm 4 mps 755 mmHg 95%
    06:00 +14°C° 0 mm 5 mps 755 mmHg 94%
    07:00 +15°C° 0 mm 5 mps 756 mmHg 94%
    08:00 +15°C° 0 mm 6 mps 757 mmHg 93%
    09:00 +16°C° 0 mm 7 mps 757 mmHg 85%
    10:00 +16°C° 0 mm 7 mps 758 mmHg 78%
    11:00 +17°C° 0 mm 8 mps 758 mmHg 70%
    12:00 +17°C° 0 mm 8 mps 758 mmHg 68%
    13:00 +16°C° 0 mm 8 mps 758 mmHg 66%
    14:00 +16°C° 0 mm 7 mps 758 mmHg 64%
    15:00 +15°C° 0 mm 7 mps 758 mmHg 68%
    16:00 +14°C° 0 mm 7 mps 759 mmHg 72%
    17:00 +11°C° 0 mm 6 mps 759 mmHg 76%
    18:00 +13°C° 0.1 mm 6 mps 759 mmHg 76%
    19:00 +13°C° 0.1 mm 6 mps 759 mmHg 77%
    20:00 +13°C° 0.1 mm 6 mps 758 mmHg 77%
    21:00 +12°C° 0.2 mm 7 mps 758 mmHg 78%
    22:00 +12°C° 0.2 mm 8 mps 757 mmHg 79%
    23:00 +12°C° 0.2 mm 9 mps 757 mmHg 80%

    Tomorrow, 14 November, Thursday

    Time Temperature Precipitation Wind Pressure Humidity
    00:00 +11°C° 0.4 mm 9 mps 756 mmHg 78%
    01:00 +11°C° 0.4 mm 10 mps 755 mmHg 76%
    02:00 +11°C° 0.4 mm 11 mps 755 mmHg 74%
    03:00 +9°C° 0.7 mm 11 mps 755 mmHg 75%
    04:00 +8°C° 0.7 mm 12 mps 755 mmHg 76%
    05:00 +7°C° 0.7 mm 12 mps 754 mmHg 77%
    06:00 +8°C° 0.2 mm 11 mps 755 mmHg 74%
    07:00 +8°C° 0.2 mm 10 mps 755 mmHg 71%
    08:00 +8°C° 0.2 mm 9 mps 755 mmHg 68%
    09:00 +8°C° 1.9 mm 10 mps 754 mmHg 71%
    10:00 +8°C° 1.9 mm 11 mps 754 mmHg 74%
    11:00 +9°C° 1.9 mm 12 mps 753 mmHg 77%
    12:00 +9°C° 0.7 mm 13 mps 753 mmHg 76%
    13:00 +9°C° 0.7 mm 14 mps 753 mmHg 74%
    14:00 +10°C° 0.7 mm 14 mps 752 mmHg 73%
    15:00 +9°C° 0.5 mm 13 mps 753 mmHg 73%
    16:00 +8°C° 0.5 mm 11 mps 753 mmHg 73%
    17:00 +8°C° 0.5 mm 10 mps 754 mmHg 73%
    18:00 +8°C° 0.4 mm 10 mps 754 mmHg 74%
    19:00 +7°C° 0.4 mm 10 mps 755 mmHg 74%
    20:00 +7°C° 0.4 mm 10 mps 755 mmHg 75%
    21:00 +7°C° 0.4 mm 9 mps 755 mmHg 75%
    22:00 +6°C° 0.4 mm 8 mps 755 mmHg 75%
    23:00 +6°C° 0.4 mm 7 mps 755 mmHg 75%

    Day after tomorrow, 15 November, Friday

    Time Temperature Precipitation Wind Pressure Humidity
    00:00 +6°C° 0.3 mm 7 mps 755 mmHg 74%
    01:00 +6°C° 0.3 mm 7 mps 755 mmHg 74%
    02:00 +5°C° 0.3 mm 8 mps 755 mmHg 73%
    03:00 +5°C° 0.1 mm 8 mps 755 mmHg 74%
    04:00 +5°C° 0.1 mm 8 mps 755 mmHg 76%
    05:00 +4°C° 0.1 mm 8 mps 756 mmHg 77%
    06:00 +5°C° 0.1 mm 7 mps 756 mmHg 72%
    07:00 +6°C° 0.1 mm 7 mps 757 mmHg 70%
    08:00 +7°C° 0.1 mm 6 mps 757 mmHg 69%
    09:00 +8°C° 0 mm 7 mps 757 mmHg 65%
    10:00 +9°C° 0 mm 7 mps 757 mmHg 61%
    11:00 +10°C° 0 mm 7 mps 757 mmHg 56%
    12:00 +10°C° 0 mm 7 mps 757 mmHg 55%
    13:00 +10°C° 0 mm 7 mps 756 mmHg 53%
    14:00 +11°C° 0 mm 7 mps 756 mmHg 52%
    15:00 +10°C° 0 mm 7 mps 756 mmHg 57%
    16:00 +9°C° 0 mm 7 mps 757 mmHg 62%
    17:00 +6°C° 0 mm 7 mps 757 mmHg 68%
    18:00 +7°C° 0.1 mm 6 mps 757 mmHg 71%
    19:00 +7°C° 0.1 mm 6 mps 758 mmHg 74%
    20:00 +5°C° 0.1 mm 6 mps 758 mmHg 77%
    21:00 +5°C° 0 mm 6 mps 758 mmHg 79%
    22:00 +5°C° 0 mm 6 mps 758 mmHg 80%
    23:00 +4°C° 0 mm 6 mps 759 mmHg 81%

    16 November, Saturday

    Time Temperature Precipitation Wind Pressure Humidity
    00:00 +4°C° 0 mm 6 mps 759 mmHg 82%
    01:00 +5°C° 0 mm 5 mps 759 mmHg 82%
    02:00 +5°C° 0 mm 5 mps 759 mmHg 83%
    03:00 +5°C° 0 mm 5 mps 759 mmHg 83%
    04:00 +5°C° 0 mm 4 mps 759 mmHg 83%
    05:00 +4°C° 0 mm 4 mps 759 mmHg 84%
    06:00 +5°C° 0 mm 3 mps 760 mmHg 81%
    07:00 +7°C° 0 mm 3 mps 760 mmHg 79%
    08:00 +8°C° 0 mm 2 mps 761 mmHg 77%
    09:00 +9°C° 0 mm 2 mps 761 mmHg 70%
    10:00 +12°C° 0 mm 1 mps 761 mmHg 63%
    11:00 +13°C° 0 mm 1 mps 761 mmHg 56%
    12:00 +13°C° 0 mm 1 mps 760 mmHg 58%
    13:00 +13°C° 0 mm 2 mps 760 mmHg 60%
    14:00 +13°C° 0 mm 2 mps 759 mmHg 62%
    15:00 +12°C° 0.1 mm 3 mps 759 mmHg 65%
    16:00 +11°C° 0.1 mm 3 mps 759 mmHg 69%
    17:00 +10°C° 0.1 mm 3 mps 759 mmHg 73%
    18:00 +10°C° 0.9 mm 4 mps 758 mmHg 78%
    19:00 +10°C° 0.9 mm 4 mps 758 mmHg 83%
    20:00 +10°C° 0.9 mm 4 mps 758 mmHg 88%
    21:00 +9°C° 1 mm 5 mps 758 mmHg 90%
    22:00 +10°C° 1 mm 5 mps 757 mmHg 92%
    23:00 +12°C° 1 mm 5 mps 757 mmHg 95%

    17 November, Sunday

    Time Temperature Precipitation Wind Pressure Humidity
    00:00 +11°C° 0.8 mm 6 mps 756 mmHg 94%
    01:00 +13°C° 0.8 mm 6 mps 755 mmHg 94%
    02:00 +14°C° 0.8 mm 7 mps 755 mmHg 93%
    03:00 +14°C° 1.2 mm 7 mps 755 mmHg 91%
    04:00 +12°C° 1.2 mm 8 mps 754 mmHg 90%
    05:00 +12°C° 1.2 mm 8 mps 754 mmHg 88%
    06:00 +12°C° 0.1 mm 8 mps 755 mmHg 84%
    07:00 +11°C° 0.1 mm 7 mps 755 mmHg 80%
    08:00 +11°C° 0.1 mm 7 mps 756 mmHg 76%
    09:00 +11°C° 0.1 mm 7 mps 756 mmHg 73%
    10:00 +12°C° 0.1 mm 8 mps 757 mmHg 70%
    11:00 +12°C° 0.1 mm 8 mps 757 mmHg 67%
    12:00 +12°C° 0.1 mm 8 mps 757 mmHg 66%
    13:00 +12°C° 0.1 mm 8 mps 757 mmHg 65%
    14:00 +11°C° 0.1 mm 8 mps 756 mmHg 64%
    15:00 +11°C° 0.4 mm 8 mps 757 mmHg 68%
    16:00 +11°C° 0.4 mm 9 mps 757 mmHg 72%
    17:00 +10°C° 0.4 mm 9 mps 757 mmHg 77%
    18:00 +10°C° 0.1 mm 9 mps 758 mmHg 79%
    19:00 +10°C° 0.1 mm 8 mps 758 mmHg 81%
    20:00 +10°C° 0.1 mm 7 mps 758 mmHg 84%
    21:00 +9°C° 0.1 mm 7 mps 758 mmHg 83%
    22:00 +9°C° 0.1 mm 6 mps 759 mmHg 83%
    23:00 +9°C° 0.1 mm 6 mps 759 mmHg 83%

    18 November, Monday

    Time Temperature Precipitation Wind Pressure Humidity
    00:00 +8°C° 0 mm 5 mps 759 mmHg 83%
    01:00 +8°C° 0 mm 5 mps 759 mmHg 83%
    02:00 +7°C° 0 mm 5 mps 759 mmHg 83%
    03:00 +7°C° 0 mm 4 mps 759 mmHg 82%
    04:00 +7°C° 0 mm 4 mps 760 mmHg 81%
    05:00 +8°C° 0 mm 3 mps 760 mmHg 80%
    06:00 +8°C° 0 mm 3 mps 760 mmHg 78%
    07:00 +9°C° 0 mm 2 mps 760 mmHg 76%
    08:00 +9°C° 0 mm 2 mps 760 mmHg 73%
    09:00 +10°C° 0 mm 2 mps 760 mmHg 69%
    10:00 +13°C° 0 mm 2 mps 760 mmHg 64%
    11:00 +14°C° 0 mm 2 mps 760 mmHg 60%
    12:00 +13°C° 0.1 mm 3 mps 760 mmHg 64%
    13:00 +12°C° 0.1 mm 3 mps 759 mmHg 69%
    14:00 +12°C° 0.1 mm 4 mps 759 mmHg 73%
    15:00 +12°C° 0 mm 5 mps 758 mmHg 75%
    16:00 +10°C° 0 mm 5 mps 758 mmHg 78%
    17:00 +10°C° 0 mm 6 mps 757 mmHg 80%
    18:00 +10°C° 0.1 mm 6 mps 757 mmHg 81%
    19:00 +10°C° 0.1 mm 7 mps 757 mmHg 82%
    20:00 +10°C° 0.1 mm 7 mps 756 mmHg 83%
    21:00 +10°C° 1.7 mm 7 mps 756 mmHg 85%
    22:00 +10°C° 1.7 mm 7 mps 756 mmHg 87%
    23:00 +10°C° 1.7 mm 7 mps 756 mmHg 90%
    Show more